Location: Darlington Observatory
(36.4817°N, 105.8156°W)
Time: 14:08:35
(UTC-06:00)

MOS 1 - Visible Passes

Search period start: 21 June 2018 00:00
Search period end: 01 July 2018 00:00
Orbit: 879 x 891 km, 99.2° (Epoch: 21 June)

Date Brightness Start Highest point End Pass type
(mag) Time Alt. Az. Time Alt. Az. Time Alt. Az.
21 Jun 6.9 21:07:08 10° SW 21:10:26 16° W 21:13:46 10° NW visible
22 Jun 6.9 21:05:12 10° SW 21:08:39 17° W 21:12:08 10° NW visible
23 Jun 6.8 21:03:16 10° SW 21:06:51 17° W 21:10:29 10° NW visible
24 Jun 6.8 21:01:20 10° SW 21:05:04 18° W 21:08:49 10° NW visible
25 Jun 6.8 20:59:25 10° SW 21:03:16 19° W 21:07:09 10° NW visible
26 Jun 6.8 20:57:31 10° SW 21:01:29 20° W 21:05:29 10° NW visible
27 Jun 6.8 20:55:36 10° SW 20:59:41 20° W 21:03:48 10° NW visible
28 Jun 6.7 20:53:43 10° SW 20:57:53 21° W 21:02:07 10° NW visible
29 Jun 6.7 20:51:49 10° SW 20:56:06 22° W 21:00:25 10° NW visible
30 Jun 6.6 20:49:56 10° SSW 20:54:19 23° W 20:58:44 10° NW visible
